Weather History for Dayton Wright, OH

Change the Weather History Date:

Thursday, February 20, 2014

  Actual Average (KFFO) Record (KFFO)
Temperature  
Mean Temperature 50 °F -  
Max Temperature 64 °F 40 °F 63 °F (2014)
Min Temperature 36 °F 23 °F 3 °F (2008)
Degree Days  
Heating Degree Days 15    
Moisture  
Dew Point 42 °F    
Average Humidity 76    
Maximum Humidity 94    
Minimum Humidity 63    
Precipitation  
Precipitation 0.61 in - - ()
Sea Level Pressure  
Sea Level Pressure 29.74 in    
Wind  
Wind Speed 12 mph (SSE)    
Max Wind Speed 26 mph    
Max Gust Speed 43 mph    
Visibility 9 miles    
Events Rain , Thunderstorm    
Averages and records for this station are not official NWS values.
T = Trace of Precipitation, MM = Missing Value Source: NWS Daily Summary

Daily Weather History Graph

Daily Weather History Graph

Search for Another Location

Airport:

Trip Planner

Search our weather history database for the weather conditions in past years. The results will help you decide how hot, cold, wet, or windy it might be!

Date:

Astronomy

Feb. 20, 2014 Rise Set
Actual Time 7:22 AM EST 6:19 PM EST
Civil Twilight 6:55 AM EST 6:46 PM EST
Nautical Twilight 6:23 AM EST 7:17 PM EST
Astronomical Twilight 5:52 AM EST 7:49 PM EST
Moon No Moon Rise 10:06 AM EST (2/20)
Length of Visible Light 11h 51m
Length of Day
10h 56m
Waning Gibbous, 71% of the Moon is Illuminated
Feb 20
Waning Gibbous
Feb 22
Last Quarter
Mar 1
New
Mar 8
First Quarter
Mar 16
Full

Hourly Weather History & Observations

Time (EST) Temp. Windchill Dew Point Humidity Pressure Visibility Wind Dir Wind Speed Gust Speed Precip Events Conditions
12:53 AM 37.0 °F 30.4 °F 30.0 °F 76% 30.03 in 10.0 mi East 9.2 mph - N/A   Clear
1:53 AM 36.0 °F 29.6 °F 30.0 °F 79% 30.02 in 10.0 mi East 8.1 mph - N/A   Clear
2:53 AM 37.0 °F 31.0 °F 28.9 °F 73% 30.01 in 10.0 mi ESE 8.1 mph - N/A   Clear
3:53 AM 36.0 °F 28.5 °F 28.0 °F 73% 29.97 in 10.0 mi ESE 10.4 mph - N/A   Clear
4:53 AM 37.0 °F 29.8 °F 28.9 °F 73% 29.93 in 10.0 mi East 10.4 mph - N/A   Partly Cloudy
5:53 AM 37.9 °F 30.5 °F 30.0 °F 73% 29.91 in 10.0 mi East 11.5 mph - N/A   Mostly Cloudy
6:53 AM 37.9 °F 29.6 °F 30.0 °F 73% 29.87 in 10.0 mi ESE 13.8 mph 20.7 mph N/A   Overcast
7:15 AM 39.0 °F 31.4 °F 30.0 °F 70% 29.85 in 10.0 mi SE 12.7 mph 24.2 mph N/A Thunderstorm Overcast
7:49 AM 39.2 °F 31.6 °F 32.0 °F 75% 29.82 in 10.0 mi ESE 12.7 mph - 0.01 in   Overcast
7:53 AM 39.0 °F 31.4 °F 32.0 °F 76% 29.84 in 10.0 mi ESE 12.7 mph - 0.01 in   Overcast
8:07 AM 39.0 °F 32.8 °F 32.0 °F 76% 29.82 in 10.0 mi ESE 9.2 mph - N/A   Overcast
8:34 AM 41.0 °F 34.7 °F 33.1 °F 73% 29.82 in 10.0 mi SE 10.4 mph - 0.00 in   Overcast
8:53 AM 42.1 °F 37.7 °F 34.0 °F 73% 29.83 in 10.0 mi SE 6.9 mph - 0.00 in   Mostly Cloudy
9:53 AM 48.0 °F - 39.0 °F 71% 29.80 in 10.0 mi SSE 10.4 mph - N/A   Mostly Cloudy
10:01 AM 48.0 °F - 39.0 °F 71% 29.78 in 10.0 mi SSE 11.5 mph - N/A   Overcast
10:33 AM 48.9 °F - 41.0 °F 74% 29.76 in 10.0 mi SSE 11.5 mph - N/A   Partly Cloudy
10:49 AM 50.0 °F - 42.8 °F 76% 29.76 in 10.0 mi SSE 8.1 mph - N/A   Mostly Cloudy
10:53 AM 51.1 °F - 43.0 °F 74% 29.77 in 10.0 mi South 8.1 mph - N/A   Mostly Cloudy
11:39 AM 54.0 °F - 48.0 °F 80% 29.75 in 10.0 mi South 15.0 mph 23.0 mph N/A   Mostly Cloudy
11:53 AM 55.0 °F - 48.9 °F 80% 29.75 in 10.0 mi South 16.1 mph 21.9 mph N/A   Partly Cloudy
12:53 PM 57.9 °F - 52.0 °F 81% 29.70 in 10.0 mi SSW 10.4 mph - N/A   Mostly Cloudy
1:53 PM 61.0 °F - 54.0 °F 78% 29.68 in 10.0 mi SSW 12.7 mph - N/A   Overcast
2:53 PM 63.0 °F - 53.1 °F 70% 29.64 in 10.0 mi SSW 16.1 mph 29.9 mph N/A   Overcast
3:53 PM 64.0 °F - 53.1 °F 67% 29.64 in 10.0 mi South 15.0 mph 24.2 mph N/A   Overcast
4:53 PM 63.0 °F - 52.0 °F 67% 29.63 in 10.0 mi South 16.1 mph - N/A   Mostly Cloudy
5:53 PM 63.0 °F - 52.0 °F 67% 29.59 in 10.0 mi South 18.4 mph 28.8 mph N/A   Mostly Cloudy
6:53 PM 62.1 °F - 51.1 °F 67% 29.56 in 10.0 mi South 19.6 mph 28.8 mph N/A   Partly Cloudy
7:53 PM 64.0 °F - 51.1 °F 63% 29.57 in 10.0 mi South 21.9 mph 28.8 mph N/A   Mostly Cloudy
8:53 PM 63.0 °F - 54.0 °F 72% 29.55 in 10.0 mi South 26.5 mph 42.6 mph N/A   Scattered Clouds
9:53 PM 60.1 °F - 57.0 °F 90% 29.52 in 8.0 mi South 26.5 mph 40.3 mph 0.07 in Rain Light Rain
10:53 PM 60.1 °F - 57.0 °F 90% 29.51 in 10.0 mi South 17.3 mph 25.3 mph 0.11 in Rain Light Rain
11:31 PM 53.1 °F - 51.1 °F 93% 29.55 in 1.5 mi West 16.1 mph 40.3 mph 0.23 in Rain Heavy Rain
11:39 PM 51.1 °F - 48.9 °F 92% 29.56 in 1.2 mi West 15.0 mph 26.5 mph 0.35 in Rain Heavy Rain
11:49 PM 50.0 °F - 48.2 °F 94% 29.53 in 3.0 mi West 11.5 mph 24.2 mph 0.40 in Rain Rain
11:53 PM 50.0 °F - 48.0 °F 93% 29.53 in 3.0 mi West 12.7 mph 18.4 mph 0.42 in Rain Rain